Location: Fountain Hills
(33.6120°N, 111.7170°W)
Time: 12:56:28
(UTC-07:00)

Hamsat - Visible Passes

Search period start: 17 December 2014 00:00
Search period end: 27 December 2014 00:00
Orbit: 593 x 625 km, 97.6° (Epoch: 17 December)

Date Brightness Start Highest point End Pass type
(mag) Time Alt. Az. Time Alt. Az. Time Alt. Az.
17 Dec ? 06:17:58 10° N 06:22:17 69° WNW 06:26:32 10° SSW visible
17 Dec ? 18:45:52 10° WSW 18:47:03 11° W 18:48:15 10° WNW visible
18 Dec ? 04:58:25 10° ENE 05:00:01 12° E 05:01:37 10° ESE visible
18 Dec ? 06:32:00 10° N 06:36:08 45° WNW 06:40:13 10° SSW visible
19 Dec ? 05:11:07 10° NE 05:14:01 18° E 05:16:54 10° SE visible
19 Dec ? 06:46:08 10° N 06:49:57 31° WNW 06:53:43 10° SW visible
20 Dec ? 05:24:23 10° NE 05:27:59 25° E 05:31:32 10° SSE visible
20 Dec ? 17:48:21 10° S 17:52:31 49° W 17:56:44 10° NNW visible
21 Dec ? 05:37:53 10° NNE 05:41:54 37° E 05:45:51 10° SSE visible
21 Dec ? 18:02:32 10° SSW 18:06:25 33° W 18:10:20 10° NNW visible
22 Dec ? 05:51:32 10° NNE 05:55:47 56° E 05:59:58 10° S visible
22 Dec ? 18:16:55 10° SSW 18:20:19 23° W 18:23:46 10° NW visible
23 Dec ? 06:05:18 10° NNE 06:09:37 85° ESE 06:13:53 10° S visible
23 Dec ? 18:31:39 10° SW 18:34:15 16° W 18:36:52 10° NW visible
24 Dec ? 06:19:10 10° N 06:23:26 64° WNW 06:27:38 10° SSW visible
24 Dec ? 18:47:26 10° WSW 18:48:11 10° W 18:48:56 10° W visible
25 Dec ? 04:59:18 10° ENE 05:01:06 12° E 05:02:54 10° ESE visible
25 Dec ? 06:33:07 10° N 06:37:11 42° WNW 06:41:12 10° SW visible
26 Dec ? 05:12:02 10° NE 05:15:01 18° E 05:17:58 10° SE visible
26 Dec ? 06:47:12 10° NNW 06:50:55 29° WNW 06:54:35 10° SW visible
